Weather in Baygorovka

Russia / Orenburg Oblast     52°17′52″N   51°56′36″E
temp.,
°C
wind,
m/s
gust,
m/s
humid.,
%
clouds,
%
prec.,
mm/h
press.,
hPa
HPBL,
m
28 february, sun
sun2823:000sw5998100 0.6 999423
02:000sw5898100 1.1 999377
05:00−2wnw5698100 2.3 999254
08:00−12nw6109498 0.4 1001316
11:00−13nw6109394 0.6 1003354
14:00−13nw61093100 0.1 1005396
17:00−13nw61092100 0.3 1008469
20:00−14nw5109498 0.1 1011383
1 march, mon
mon123:00−15nw489593 0.2 1013238
02:00−17wnw479696 0.1 1015170
05:00−17nw369694 0.1 1016166
08:00−16nw4796100 0.2 1018235
11:00−16nw469494 0.2 1020250
14:00−16nw459381 0.0 1021259
17:00−16nw479371 0.0 1022295
20:00−20wnw339837 0.0 102328
2 march, tue
tue223:00−21w2310041 0.0 102320
02:00−21wsw339969 0.0 102228
05:00−20sw449947 0.0 102161
08:00−19ssw599980 0.0 1018191
11:00−15ssw7129690 0.1 1015286
14:00−11ssw91493100 0.1 1012429
17:00−6ssw91594100 0.7 1009768
20:00−4ssw81494100 0.7 1005741
3 march, wed
wed323:00−3ssw81395100 1.4 1003616
02:00−3ssw61195100 0.5 1001424
05:00−2wsw4897100 1.2 1001267
08:00−6w359793 0.2 100183
11:00−5w469695 0.5 1002266
14:00−2wnw4795100 0.6 1003427
17:00−3wnw5896100 1.3 1004445
20:00−4nw3695100 0.8 1005187
4 march, thu
thu423:00−6nw489594 0.9 1007137
02:00−7wnw349672 0.0 100851
05:00−8nw489677 0.1 1010144
08:00−11nw5109575 0.0 1012199
11:00−10nw499575 0.0 1014280
14:00−8w479386 0.0 1016310
17:00−8wsw599158 0.0 1016351
20:00−10sw613942 0.0 1016290